Temperature
19 17 17 18 18 19 18 18 18 18 18 18 17 17 16 17 17 17 17 18 18 18 18 18 18 18 17 17 17 17 17 17 16 16 16 16 16 16 16 15 15 15 15 15
17 17 18 19 19 19 18 18 17 17 18 18 17 17 16 16 16 17 17 18 18 18 18 18 18 18 17 17 17 17 17 17 16 16 16 16 16 16 15 15 15 15 15 15
18 18 19 19 19 18 18 17 17 17 17 17 17 17 16 16 17 17 17 18 18 18 18 18 18 18 18 17 17 17 17 17 16 16 16 16 16 16 16 15 15 15 15 15
18 19 19 19 19 18 18 18 18 18 17 16 17 16 16 16 16 16 17 17 18 18 18 18 18 18 18 18 17 17 17 17 16 16 16 16 16 16 16 15 15 15 15 15
18 19 19 19 19 18 18 18 18 17 17 16 16 16 16 16 16 16 16 17 18 18 18 18 18 18 18 18 17 17 17 17 16 16 16 16 16 16 16 15 15 15 15 15
18 19 19 19 18 18 18 17 16 15 15 16 16 16 16 15 16 16 17 17 18 18 18 18 18 18 18 18 17 17 17 17 16 16 16 16 16 16 16 16 15 15 15 15
18 18 18 19 18 18 17 16 16 16 15 15 16 16 16 17 17 17 17 18 18 18 18 18 18 18 18 18 17 17 17 17 16 16 16 16 16 16 16 16 15 15 15 15
17 17 18 18 18 17 17 17 16 16 15 15 16 16 17 18 18 18 18 18 18 18 18 18 19 18 18 18 18 17 17 17 16 16 16 16 16 16 16 16 15 15 15 15
16 17 18 19 18 18 17 16 16 15 16 15 15 16 17 18 17 17 18 18 18 19 19 19 19 18 18 18 18 18 17 17 17 16 16 16 16 16 16 16 16 15 15 15
17 17 18 18 18 17 17 15 14 15 16 16 16 16 16 17 17 17 17 18 18 18 19 19 19 19 18 18 18 18 17 17 17 17 16 16 16 16 16 16 16 16 15 15
17 17 17 18 18 17 16 16 15 14 15 15 16 16 18 17 17 17 17 18 18 18 19 19 19 19 18 18 18 18 18 17 17 17 16 16 16 16 16 16 16 16 15 15
16 15 16 17 17 18 17 16 15 16 15 14 15 16 18 17 17 17 18 19 19 19 19 19 19 19 18 18 18 18 18 17 17 17 17 16 16 16 16 16 16 16 15 15
16 15 16 16 17 17 17 16 16 15 14 14 15 17 17 17 17 18 18 19 19 19 19 19 19 19 19 18 18 18 18 18 17 17 17 16 16 16 16 16 16 16 16 15
16 15 16 16 16 16 17 17 16 15 15 14 15 16 17 17 17 17 18 19 19 19 19 19 19 19 19 19 18 18 18 18 17 17 17 16 16 16 16 16 16 16 16 16
16 16 16 16 17 17 18 17 16 16 16 15 16 16 17 17 17 18 18 19 19 19 19 19 19 19 19 19 19 18 18 18 17 17 17 17 16 16 16 16 16 16 16 16
14 15 16 17 17 17 17 18 17 17 17 16 17 17 17 18 18 18 18 18 19 19 19 19 19 19 19 19 19 19 18 18 18 17 17 17 16 16 16 16 16 16 16 16
14 15 15 15 16 17 17 18 17 17 17 17 17 18 17 17 17 18 18 19 19 20 19 19 19 19 19 19 19 19 19 18 18 17 17 17 16 16 16 16 16 16 16 16
14 14 13 14 16 17 17 17 18 18 18 17 18 17 18 18 19 19 19 20 20 20 20 20 20 20 19 19 19 19 18 18 18 18 17 17 17 17 16 16 16 16 16 15
14 14 13 13 15 16 17 18 17 18 18 18 17 17 18 18 18 18 20 20 20 20 20 20 20 20 19 19 19 19 18 18 18 18 17 17 17 17 16 16 16 16 15 15
13 13 13 13 15 16 17 18 18 18 18 18 17 17 17 17 16 17 20 20 20 20 20 20 20 19 19 19 19 18 18 18 18 18 17 17 17 17 16 16 16 15 15 15
13 13 13 13 14 15 16 17 18 17 17 19 18 18 18 17 18 20 20 20 20 20 20 20 20 19 19 19 18 18 18 18 18 18 17 17 17 16 16 16 16 15 15 15
13 13 13 13 14 15 17 16 17 17 19 19 19 19 19 19 19 19 20 20 20 20 20 20 19 19 19 18 18 18 18 18 18 17 17 17 17 16 16 16 16 15 15 15
13 14 13 14 15 16 17 18 19 19 19 19 19 19 19 19 19 19 19 19 19 19 19 19 19 19 18 18 18 18 18 17 17 17 17 17 16 16 16 16 15 15 15 15
12 13 12 13 14 16 17 18 19 19 19 20 20 19 19 19 19 19 19 19 19 19 19 19 19 18 18 18 18 18 17 17 17 17 16 16 16 16 15 15 15 15 14 14
13 12 12 13 14 16 18 18 19 19 19 19 19 19 19 19 19 19 19 19 19 19 19 18 18 18 18 17 17 17 17 17 17 16 16 16 16 15 15 15 15 14 14 14
11 12 13 14 15 15 17 18 18 18 19 19 19 19 19 19 19 19 19 18 18 18 18 18 18 17 17 17 17 17 16 16 16 16 16 16 15 15 15 14 14 14 13 13
Wind_Speed
4 5 1 4 4 3 4 3 1 1 1 2 2 2 3 4 5 6 5 5 6 6 4 4 5 5 5 5 5 5 5 4 4 3 3 3 2 2 3 5 6 6 6 7
5 1 3 2 2 3 3 3 0 1 1 2 1 2 3 4 7 8 8 7 7 6 4 5 5 5 5 6 5 5 5 5 4 3 2 2 2 2 2 3 6 7 6 6
3 3 0 3 3 4 1 3 2 1 2 3 1 3 2 3 4 5 5 6 6 8 7 6 7 6 6 6 6 6 5 5 4 4 3 4 4 3 3 3 3 5 6 6
1 2 2 2 2 4 1 2 3 2 2 1 1 2 5 3 4 6 7 6 7 7 7 7 8 8 8 7 6 6 5 5 4 4 4 4 3 2 0 0 1 4 6 5
1 0 2 1 2 4 3 2 3 2 3 1 1 1 5 2 5 8 9 9 8 8 8 9 9 10 8 7 6 6 6 4 4 4 5 5 3 2 1 2 3 3 4 5
1 0 1 2 1 3 4 5 5 4 4 1 2 2 5 4 7 7 7 8 9 9 8 8 7 7 6 6 6 6 6 5 4 5 4 5 5 4 4 3 2 2 2 3
3 3 1 1 3 3 4 5 3 3 2 4 2 2 7 6 7 8 8 8 8 8 9 8 8 8 8 7 7 7 7 5 4 5 4 5 5 5 5 3 2 2 1 1
1 4 2 1 3 4 3 6 5 3 3 3 2 4 6 5 3 4 5 6 7 7 8 9 10 9 9 9 8 8 7 5 5 5 5 4 5 4 3 3 3 2 1 1
5 3 3 1 2 6 5 3 5 4 1 1 4 5 6 2 2 1 3 5 7 8 8 9 9 9 9 9 8 9 8 6 6 6 5 5 5 4 4 3 3 2 2 1
7 2 2 1 4 3 4 7 5 4 2 2 4 4 4 4 3 2 3 5 6 6 7 8 8 9 9 8 7 8 8 7 6 6 6 5 5 5 4 4 3 3 2 2
4 4 2 2 2 4 3 4 4 4 3 3 2 5 5 7 6 6 6 6 6 7 7 7 7 7 7 7 7 7 7 6 6 6 5 5 5 4 4 4 4 3 3 3
3 4 2 4 3 3 4 5 6 4 2 3 2 6 6 5 5 5 5 5 5 6 6 6 6 6 6 7 7 8 7 7 6 6 6 6 5 5 4 4 4 4 4 3
4 5 2 4 4 1 2 4 4 5 4 4 3 6 4 2 0 2 3 4 4 4 5 5 6 7 7 8 7 8 7 7 6 6 6 5 5 5 5 4 4 4 4 3
5 3 5 6 5 4 3 4 5 5 4 4 6 7 6 3 2 2 2 3 4 4 5 6 7 7 7 7 7 8 7 7 7 7 6 6 6 6 5 4 4 4 4 4
4 3 3 4 4 3 4 5 7 7 8 7 7 7 9 7 5 4 3 3 4 4 5 6 7 7 7 7 7 7 7 7 7 7 7 7 6 5 4 4 4 4 4 4
3 3 2 2 2 3 4 5 7 7 6 7 5 7 7 4 2 3 3 4 5 6 7 7 7 7 8 8 8 8 8 7 7 8 7 6 5 5 5 5 4 4 4 4
3 4 3 2 3 2 5 6 7 6 6 8 8 8 4 2 5 6 6 6 7 7 7 8 8 9 9 9 9 9 8 7 8 8 7 6 6 6 6 5 5 5 4 4
6 4 3 1 1 4 7 4 5 6 6 7 6 5 5 5 5 5 6 7 7 7 7 7 7 7 7 7 7 7 7 8 8 8 7 7 7 6 6 6 6 5 4 4
5 6 4 3 3 5 7 3 3 4 5 5 5 4 3 2 2 2 4 6 8 8 7 7 7 6 6 7 7 7 7 8 8 8 8 8 8 7 7 7 6 5 4 4
4 4 5 3 3 5 6 4 2 2 4 4 5 5 4 5 2 5 4 4 5 4 4 4 4 5 5 5 7 8 7 8 8 8 8 7 8 8 8 7 6 4 4 4
3 3 4 5 5 7 6 4 2 4 6 4 6 6 6 6 6 4 2 3 3 3 3 4 5 5 5 5 7 8 7 7 7 6 6 6 7 7 7 6 5 5 5 4
7 5 5 5 4 7 3 4 5 7 4 3 4 5 6 5 2 1 2 2 3 3 3 5 5 4 3 5 7 7 6 6 5 6 6 6 6 5 5 6 5 5 5 5
6 7 6 8 7 5 3 6 5 3 3 3 3 3 5 4 2 2 2 2 3 3 4 4 5 4 3 4 6 7 5 4 6 6 6 5 5 4 5 6 6 4 4 4
3 2 3 4 7 6 5 4 3 3 4 3 4 4 5 5 4 3 2 2 2 2 3 4 5 5 4 3 4 4 4 5 7 6 5 5 6 5 4 4 5 5 4 4
5 4 3 4 5 4 4 3 3 2 1 1 2 4 5 6 4 4 3 3 3 3 3 4 5 5 4 4 3 3 4 6 7 6 5 5 5 6 5 4 3 4 3 5
4 5 6 6 5 4 5 5 2 1 1 2 3 3 3 5 6 5 4 3 4 4 4 5 4 4 3 4 4 3 4 6 7 6 5 4 4 4 5 5 4 4 4 4
Wind_Direction
35 65 147 208 191 170 152 149 169 269 274 133 194 218 226 198 185 196 204 202 201 213 219 170 159 153 144 137 136 137 132 130 124 106 96 83 59 27 28 37 49 65 84 93
45 333 243 178 137 126 126 125 88 333 19 153 197 254 235 201 203 202 201 206 206 203 185 169 162 158 162 163 161 151 147 150 149 131 120 113 106 71 41 30 41 49 72 87
161 257 154 122 109 110 106 166 192 198 31 45 54 325 263 240 209 210 208 210 206 198 192 186 175 174 171 177 176 167 161 155 146 128 103 82 63 46 34 26 26 24 54 77
226 290 108 116 150 144 215 212 176 158 117 318 103 276 273 239 224 216 213 209 209 205 196 192 184 181 185 190 177 161 156 149 144 138 134 130 127 124 134 32 37 34 49 68
280 92 115 154 221 160 182 111 112 120 123 43 28 220 281 217 232 234 223 213 208 201 194 195 192 187 188 182 170 158 148 148 146 145 146 133 122 125 101 69 65 48 38 52
256 280 168 194 97 132 126 76 64 57 70 336 242 192 277 232 223 227 220 213 202 194 192 193 187 173 174 171 161 152 151 156 152 149 147 148 145 136 119 99 86 58 38 36
355 345 345 123 87 52 84 88 45 14 15 267 264 215 255 249 226 214 215 210 199 188 184 182 179 177 176 173 166 158 158 163 160 157 160 163 158 152 152 150 138 116 74 43
138 302 279 187 165 163 150 133 149 185 224 279 297 249 262 266 256 221 203 192 181 182 187 188 187 183 182 179 172 166 167 175 171 171 174 167 160 156 160 158 153 153 156 151
173 248 302 236 167 137 132 141 152 135 168 279 283 289 305 318 14 72 147 166 183 188 191 192 186 185 184 181 179 175 174 181 182 182 172 166 164 163 164 160 152 157 164 137
156 189 309 329 78 46 135 141 106 115 144 276 300 287 262 269 263 224 193 197 200 191 187 189 188 188 187 183 177 174 178 184 183 177 176 175 176 176 169 157 163 169 157 119
141 150 324 29 177 178 108 108 110 118 148 161 278 280 240 230 222 215 219 212 202 194 190 190 188 185 177 168 169 174 177 175 174 175 175 168 172 169 162 170 182 170 155 147
137 131 206 257 259 191 163 165 148 150 203 178 195 271 284 246 222 209 217 216 201 192 187 186 178 169 168 172 176 177 178 179 182 175 170 174 167 161 168 185 189 166 162 159
132 119 90 345 341 5 183 173 160 133 131 163 188 267 315 357 215 207 204 204 193 182 174 173 172 176 180 181 181 181 181 183 177 167 167 169 169 171 184 192 187 171 164 158
119 122 165 195 222 208 217 201 172 147 166 202 223 253 291 288 262 242 213 198 184 182 178 175 182 187 185 184 183 182 183 181 172 166 169 177 185 185 190 188 181 178 168 165
108 150 205 232 238 213 219 212 195 195 194 197 229 234 254 247 231 221 202 186 169 182 187 187 189 191 186 184 184 182 182 180 174 169 177 190 186 174 171 173 176 170 165 172
89 146 157 282 274 238 257 244 209 213 207 215 235 256 247 228 187 195 200 192 194 200 201 198 194 192 192 192 190 185 186 181 170 174 185 186 172 167 171 175 169 160 161 158
136 132 132 258 307 360 270 239 211 210 206 191 213 230 219 203 194 201 207 207 209 208 204 201 200 200 199 197 191 190 188 174 171 178 182 179 174 176 180 174 164 168 172 164
148 134 142 176 80 243 251 256 214 219 227 212 218 217 204 210 209 204 202 205 215 211 208 205 200 201 199 193 187 182 171 169 174 178 182 182 176 178 173 168 175 180 168 167
159 145 137 149 200 270 289 264 190 199 253 213 207 218 207 157 84 295 217 204 213 211 207 206 199 192 186 186 179 166 168 171 175 183 187 186 179 175 172 178 185 181 168 173
104 128 134 152 185 233 249 272 260 150 270 232 194 201 185 136 148 252 236 210 218 213 200 187 175 163 172 181 166 161 168 173 188 193 190 182 176 177 181 186 183 172 167 177
117 119 159 178 214 256 253 275 102 161 245 249 199 192 176 184 204 219 203 193 188 177 168 153 146 157 176 164 153 160 167 189 196 180 170 170 176 180 180 174 167 160 156 148
168 165 179 164 202 252 246 154 182 225 259 224 198 183 182 198 191 155 152 150 136 124 129 137 140 149 147 148 152 159 182 194 168 155 156 162 165 169 164 157 155 150 148 146
193 190 186 189 213 244 234 220 243 235 230 223 197 188 171 164 155 134 121 113 119 126 137 142 144 138 129 142 152 164 188 162 142 140 146 150 145 146 147 150 149 144 148 151
247 167 164 235 260 265 265 255 273 254 229 217 181 162 153 149 145 127 122 112 110 113 129 133 132 132 139 146 150 166 157 140 135 139 144 142 139 134 130 138 147 150 158 163
219 171 180 246 276 304 297 282 290 306 286 161 138 146 154 146 141 141 141 133 130 121 120 125 132 142 149 140 136 129 128 132 133 136 137 138 139 141 134 127 136 152 164 171
211 186 186 224 229 212 259 282 292 274 244 180 147 124 130 152 154 144 140 138 132 130 122 121 122 129 130 126 125 122 129 137 138 136 140 143 141 140 138 135 107 71 94 112
Height
1522 1527 1531 1529 1529 1530 1532 1536 1539 1538 1533 1535 1537 1538 1537 1537 1537 1539 1540 1541 1543 1544 1547 1549 1550 1552 1554 1556 1557 1558 1559 1560 1561 1562 1562 1562 1562 1562 1563 1563 1563 1563 1563 1563
1528 1531 1526 1525 1526 1529 1532 1537 1540 1537 1534 1535 1538 1538 1535 1535 1535 1536 1538 1539 1541 1543 1545 1547 1550 1552 1553 1555 1557 1558 1559 1561 1562 1562 1563 1563 1563 1563 1564 1564 1564 1564 1564 1564
1530 1528 1524 1526 1528 1532 1534 1538 1539 1539 1536 1536 1538 1541 1537 1534 1534 1536 1537 1538 1539 1541 1543 1546 1548 1550 1553 1555 1556 1558 1559 1561 1562 1563 1563 1564 1564 1564 1564 1565 1565 1565 1565 1565
1528 1525 1525 1527 1530 1531 1537 1532 1534 1536 1542 1547 1543 1553 1540 1534 1534 1533 1534 1535 1537 1539 1541 1544 1546 1549 1551 1554 1556 1558 1559 1561 1562 1563 1564 1564 1564 1565 1565 1565 1566 1566 1566 1566
1529 1526 1526 1529 1529 1529 1532 1530 1533 1537 1542 1548 1546 1551 1544 1535 1534 1531 1530 1532 1534 1536 1539 1541 1544 1547 1550 1553 1555 1557 1559 1560 1562 1563 1564 1565 1565 1565 1566 1566 1567 1567 1567 1568
1527 1525 1525 1526 1526 1527 1529 1533 1537 1542 1546 1555 1548 1551 1547 1536 1530 1527 1527 1528 1530 1533 1536 1540 1543 1546 1549 1552 1554 1556 1558 1560 1562 1563 1564 1565 1565 1566 1566 1567 1567 1568 1568 1569
1530 1527 1525 1525 1528 1530 1532 1543 1555 1557 1560 1558 1546 1548 1542 1526 1523 1522 1523 1525 1527 1531 1534 1537 1540 1544 1547 1550 1553 1555 1557 1559 1561 1563 1564 1565 1566 1566 1567 1567 1568 1568 1569 1569
1539 1540 1528 1525 1528 1532 1534 1539 1555 1563 1564 1558 1548 1548 1534 1521 1520 1519 1520 1523 1525 1529 1532 1535 1538 1541 1545 1548 1551 1554 1556 1558 1560 1562 1564 1565 1566 1566 1567 1568 1568 1569 1569 1570
1538 1538 1526 1524 1524 1528 1535 1540 1541 1551 1554 1558 1552 1542 1529 1520 1519 1519 1520 1522 1524 1527 1530 1533 1536 1539 1543 1546 1549 1552 1555 1558 1560 1561 1563 1564 1565 1566 1567 1568 1569 1569 1570 1571
1528 1535 1528 1525 1525 1528 1530 1535 1545 1551 1559 1561 1552 1545 1538 1525 1522 1520 1520 1521 1523 1526 1529 1532 1535 1538 1541 1544 1548 1551 1554 1556 1558 1561 1562 1564 1565 1566 1567 1568 1569 1570 1570 1571
1525 1534 1533 1529 1530 1532 1534 1537 1542 1550 1552 1560 1560 1548 1523 1521 1519 1519 1519 1520 1522 1525 1527 1530 1533 1536 1539 1543 1547 1549 1552 1555 1557 1559 1561 1563 1564 1566 1567 1568 1569 1570 1570 1571
1525 1533 1539 1533 1526 1525 1528 1532 1539 1548 1552 1553 1556 1547 1517 1516 1516 1517 1518 1519 1521 1524 1527 1529 1532 1535 1538 1541 1544 1547 1550 1553 1555 1557 1559 1561 1563 1564 1566 1567 1568 1569 1570 1571
1524 1533 1543 1541 1537 1530 1528 1530 1533 1539 1547 1554 1555 1542 1517 1515 1516 1516 1517 1519 1521 1523 1526 1528 1530 1533 1536 1539 1543 1545 1548 1551 1554 1556 1558 1560 1561 1563 1564 1566 1567 1569 1570 1570
1520 1530 1537 1542 1537 1530 1529 1529 1531 1536 1546 1548 1544 1534 1521 1518 1517 1516 1517 1518 1520 1522 1524 1526 1529 1531 1534 1537 1541 1543 1546 1549 1552 1554 1556 1558 1559 1561 1563 1565 1566 1567 1569 1570
1519 1528 1528 1527 1524 1524 1524 1525 1528 1530 1532 1538 1532 1528 1519 1516 1515 1515 1516 1518 1519 1521 1523 1525 1527 1529 1532 1535 1538 1541 1544 1547 1550 1552 1554 1556 1558 1559 1561 1563 1565 1566 1567 1568
1520 1526 1526 1526 1522 1523 1524 1521 1522 1524 1525 1526 1524 1522 1512 1512 1513 1514 1515 1516 1518 1519 1521 1523 1525 1528 1530 1533 1535 1539 1542 1545 1547 1549 1551 1553 1555 1557 1559 1561 1563 1564 1566 1567
1522 1526 1531 1533 1525 1523 1527 1518 1518 1518 1516 1518 1521 1515 1510 1511 1511 1512 1513 1514 1515 1517 1519 1521 1523 1525 1528 1530 1533 1536 1539 1542 1544 1547 1549 1551 1553 1555 1557 1559 1560 1562 1563 1565
1521 1526 1532 1534 1530 1535 1521 1509 1509 1510 1509 1509 1508 1507 1508 1508 1508 1510 1511 1512 1513 1515 1517 1519 1521 1523 1525 1528 1531 1534 1536 1539 1542 1544 1546 1549 1551 1553 1555 1556 1558 1560 1561 1563
1515 1523 1532 1536 1534 1528 1516 1508 1508 1510 1509 1505 1506 1506 1507 1507 1508 1509 1509 1511 1512 1513 1515 1517 1519 1521 1523 1526 1528 1531 1534 1536 1539 1541 1543 1546 1548 1550 1552 1554 1555 1557 1559 1560
1515 1518 1528 1534 1533 1531 1516 1505 1503 1507 1510 1501 1502 1503 1505 1506 1512 1509 1507 1508 1510 1511 1513 1515 1517 1519 1521 1523 1526 1528 1531 1533 1536 1538 1541 1543 1545 1547 1549 1551 1553 1554 1556 1558
1520 1523 1527 1530 1529 1522 1507 1503 1503 1516 1510 1499 1499 1500 1502 1504 1505 1505 1505 1507 1508 1510 1511 1513 1515 1517 1519 1521 1524 1526 1528 1531 1533 1536 1538 1541 1543 1545 1547 1548 1550 1551 1553 1555
1517 1522 1525 1527 1528 1521 1501 1502 1505 1503 1497 1497 1497 1498 1500 1501 1502 1503 1504 1505 1506 1508 1510 1512 1514 1515 1518 1520 1522 1524 1526 1529 1531 1534 1536 1538 1540 1542 1544 1545 1547 1548 1550 1551
1509 1509 1511 1512 1511 1501 1498 1498 1497 1497 1496 1496 1496 1497 1498 1499 1501 1502 1503 1504 1505 1507 1509 1511 1513 1515 1517 1519 1521 1522 1525 1527 1529 1531 1533 1535 1538 1539 1541 1542 1544 1545 1547 1548
1504 1502 1505 1506 1500 1497 1496 1495 1495 1494 1494 1494 1495 1496 1497 1498 1500 1502 1503 1504 1505 1507 1508 1510 1512 1514 1515 1517 1519 1522 1524 1526 1527 1529 1531 1533 1535 1537 1539 1540 1542 1543 1544 1546
1500 1501 1502 1502 1497 1494 1493 1493 1493 1493 1493 1493 1494 1495 1497 1498 1499 1501 1502 1504 1505 1506 1508 1510 1511 1513 1515 1516 1519 1521 1522 1524 1526 1528 1530 1532 1533 1535 1536 1538 1540 1541 1542 1544
1497 1498 1499 1498 1494 1494 1492 1492 1492 1492 1492 1493 1493 1494 1496 1497 1499 1500 1502 1503 1505 1506 1508 1509 1511 1512 1514 1516 1518 1519 1521 1523 1525 1526 1528 1530 1531 1533 1534 1536 1538 1539 1540 1542